This is the latest recevied weather packets stored in our database for station/object N8GD. If no packets are shown the sender has not sent any weather packets the latest 10 day(s).
| Time | Temp. | Humidity | Pressure | Rain* | Wind** | Luminosity | Snow |
|---|---|---|---|---|---|---|---|
| 1788142206 | 73° F | 92% | 765.1 mmHg | 0 in | - | - | - |
| 1788142063 | 73° F | 92% | 765.1 mmHg | 0 in | - | - | - |
| 1788142006 | 73° F | 92% | 765.1 mmHg | 0 in | - | - | - |
| 1788141162 | 73° F | 93% | 764.9 mmHg | 0 in | - | - | - |
| 1788140405 | 73° F | 93% | 764.8 mmHg | 0 in | - | - | - |
| 1788140262 | 73° F | 93% | 764.8 mmHg | 0 in | - | - | - |
| 1788140205 | 73° F | 93% | 764.8 mmHg | 0 in | - | - | - |
| 1788139364 | 73° F | 93% | 764.4 mmHg | 0 in | - | - | - |
| 1788138463 | 73° F | 92% | 764.2 mmHg | 0 in | - | - | - |
| 1788138404 | 73° F | 92% | 764.2 mmHg | 0 in | - | - | - |
| 1788137563 | 73° F | 91% | 764.1 mmHg | 0 in | - | - | - |
| 1788136663 | 75° F | 89% | 764.2 mmHg | 0 in | - | - | - |
| 1788135762 | 75° F | 87% | 763.9 mmHg | 0 in | - | - | - |
| 1788135283 | 76° F | 86% | 763.9 mmHg | 0 in | - | - | - |
| 1788134863 | 76° F | 86% | 763.9 mmHg | 0 in | - | - | - |
| 1788133963 | 76° F | 85% | 763.6 mmHg | 0 in | - | - | - |
| 1788133064 | 77° F | 85% | 763.7 mmHg | 0 in | - | - | - |
| 1788132164 | 77° F | 83% | 763.7 mmHg | 0 in | - | - | - |
| 1788131262 | 78° F | 83% | 763.8 mmHg | 0 in | - | - | - |
| 1788130363 | 79° F | 77% | 763.6 mmHg | 0 in | - | - | - |
| 1788129463 | 79° F | 77% | 763.5 mmHg | 0 in | - | - | - |
| 1788128564 | 79° F | 76% | 763.8 mmHg | 0 in | - | - | - |
| 1788127662 | 79° F | 76% | 763.6 mmHg | 0 in | - | - | - |
| 1788126763 | 80° F | 73% | 763.6 mmHg | 0 in | - | - | - |
| 1788125863 | 81° F | 74% | 763.6 mmHg | 0 in | - | - | - |
* Rain latest hour (hover to see other rain measurements)
** Current wind speed in m/s (hover to see current wind gust speed)